Regional Weather Roundup
Issued by NWS

Home | Current Version | Previous Version | Text Only | Print | Product List | Glossary On
Versions: 1 2 3 4 5 6 7 8 9 10 11 12 13 14 15 16 17 18 19 20 21 22 23 24 25 26 27 28 29 30 31 32 33 34 35 36 37 38 39 40 41 42 43 44 45 46 47 48 49 50
750
ASCA44 KEWX 190220
RWRMX

LATIN AMERICA AND CARIBBEAN REGIONAL WEATHER ROUNDUP
NATIONAL WEATHER SERVICE AUSTIN/SAN ANTONIO TX
900 PM CDT FRI AUG 18 2017

NOTE: "FAIR" INDICATED FEW OR NO CLOUDS BELOW 12,000 FEET WITH NO
SIGNIFICANT WEATHER AND/OR OBSTRUCTIONS TO VISIBILITY.

BAJA CALIFORNIA

CITY           SKY/WX    TMP DP  RH WIND       PRES   REMARKS
LORETO           N/A    N/A N/A N/A MISG        N/A
LA PAZ         PTCLDY    84  70  61 S9        29.90R
MEXICALI       CLEAR    102  41  12 SE5       29.75F HX  97
S.J. DEL CABO  MOCLDY    84  73  70 E12       29.89R HX  91
TIJUANA        CLEAR     70  61  73 W9        29.97S

NORTHWESTERN MEXICO

CITY           SKY/WX    TMP DP  RH WIND       PRES   REMARKS
CULIACAN       MOCLDY    79  73  83 CALM      29.88R
DURANGO        CLOUDY    63  59  88 CALM      30.29R
GUAYMAS          N/A    N/A N/A N/A MISG        N/A
HERMOSILLO     CLOUDY    91  75  59 SE17      29.89R HX 102
CD. JUAREZ     MOCLDY    88  52  29 SE9       30.06R
LOS MOCHIS     MOCLDY    88  73  62 SW8       29.87R HX  96
OBREGON        MOCLDY    77  73  88 NE2       29.86R

NORTHEASTERN MEXICO

CITY           SKY/WX    TMP DP  RH WIND       PRES   REMARKS
CHIHUAHUA      MOCLDY    75  57  53 E5        30.15R
MATAMOROS        N/A    N/A N/A N/A MISG        N/A
MONCLOVA         N/A    N/A N/A N/A MISG        N/A
MONTERREY      MOCLDY    75  64  69 SE14      29.97R
NUEVO LAREDO   CLEAR     99  63  30 SE13      29.88R HX 100
PIEDRAS NEGRAS   N/A    N/A N/A N/A MISG        N/A
REYNOSA        CLEAR     84  68  58 SE14      29.95R
SALTILLO       PTCLDY    70  59  68 CALM      30.21R
TORREON        TSTM      72  64  78 SW12G23   30.12R
CD. VICTORIA   CLEAR     82  72  69 S6        29.95R

WESTERN MEXICO

CITY           SKY/WX    TMP DP  RH WIND       PRES   REMARKS
AGUASCALIENTES MOCLDY    70  57  64 NW5       30.26R
COLIMA         CLOUDY    77  75  94 CALM      29.99R
DEL BAJIO      CLOUDY    72  63  73 E14       30.28R THUNDER
GUADALAJARA    CLOUDY    70  55  60 S5        30.19R
MANZANILLO     MOCLDY    86  77  74 W12       29.83R HX  97
MAZATLAN       CLOUDY    84  79  84 CALM      29.88R HX  96
P. VALLARTA    PTCLDY    84  81  89 SW5       29.87S HX  98
URUAPAN        MOCLDY    68  64  88 SE7       30.18R
ZACATECAS      MOCLDY    64  50  59 CALM      30.31R

CENTRAL MEXICO

CITY           SKY/WX    TMP DP  RH WIND       PRES   REMARKS
CUERNAVACA       N/A    N/A N/A N/A MISG        N/A
MEXICO CITY    TSTM      57  54  88 N6        30.37R
MORELIA        LGT RAIN  61  57  88 SE12      30.26R
POZA RICA      CLEAR     82  77  83 SE7       30.02R HX  91
PUEBLA         MOCLDY    55  54  94 W3        30.36R
QUERETARO      MOCLDY    70  57  64 NE9       30.30R
S. LUIS POTOSI PTCLDY    70  54  56 E8        30.25R
TAMPICO        CLEAR     82  75  78 MISG      29.96R
TOLUCA           N/A    N/A N/A N/A MISG        N/A

SOUTHERN MEXICO

CITY           SKY/WX    TMP DP  RH WIND       PRES   REMARKS
ACAPULCO       PTCLDY    84  79  84 W5        29.88R HX  96
B. DE HUATULCO   N/A    N/A N/A N/A MISG        N/A
OAXACA         CLOUDY    64  61  88 CALM      30.25R
P. ESCONDIDO     N/A    N/A N/A N/A MISG        N/A
VERACRUZ       PTCLDY    81  77  89 CALM      29.97R
ZIHUATANEJO      N/A     84  75  74 CALM      29.88R HX  92

YUCATAN PENINSULA

CITY           SKY/WX    TMP DP  RH WIND       PRES   REMARKS
CAMPECHE       PTCLDY    81  73  78 NE12      29.95R
CANCUN         PTCLDY    81  75  83 N5        29.99S
CHETUMAL       MOCLDY    84  77  79 CALM      29.97R HX  94
CD. DEL CARMEN PTCLDY   N/A N/A N/A N12       29.93F
COZUMEL        MOCLDY    82  77  83 N7        29.96F HX  91
MERIDA         CLEAR     79  72  78 SE6       29.99S
MINATITLAN     MOCLDY    82  81  94 N12       29.93R HX  95
TAPACHULA      PTCLDY    79  73  83 CALM      29.88R
TUX. GUTIERREZ PTCLDY    77  72  83 NW5       29.98R
VILLAHERMOSA   CLEAR     82  73  74 NE7       29.96R

CENTRAL AMERICA

CITY           SKY/WX    TMP DP  RH WIND       PRES   REMARKS
MANAGUA        PTCLDY    82  77  83 SE7       29.83R HX  91

CARIBBEAN

CITY           SKY/WX    TMP DP  RH WIND       PRES   REMARKS
ARUBA          PTCLDY    84  77  79 E13       29.83R HX  94
CURACAO        MOCLDY    84  77  79 E9        29.86R HX  94
KINGSTON       LGT RAIN  82  73  74 SE10      29.92
NASSAU         PTCLDY    86  77  74 E6        30.02R HX  97
SAN JUAN       PTCLDY    84  75  74 E16       29.95S HX  92
SANTO DOMINGO  PTCLDY    79  75  89 NE9       29.94R
ST. CROIX      MOCLDY    84  77  79 NE16G24   29.93  HX  94
ST. KITTS      PTCLDY    82  77  83 NE18      29.92S THUNDER HX  91
ST. MAARTEN    PTCLDY    84  77  79 E20       29.92S HX  94
ST. THOMAS     MOCLDY    84  75  74 NE13G24   29.93  HX  92

$$





USA.gov is the U.S. government's official web portal to all federal, state and local government web resources and services.